Time,TemperatureF,DewpointF,PressureIn,WindDirection,WindDirectionDegrees,WindSpeedMPH,WindSpeedGustMPH,Humidity,HourlyPrecipIn,Conditions,Clouds,dailyrainin,SoftwareType,DateUTC
2013-04-25 00:01:00,57.0,52.9,29.90,SSW,205,1.0,1.0,86,0.00,,---,0.00,VWS V14.00,2013-04-25 04:01:00,
2013-04-25 00:02:00,57.0,52.9,29.90,SSW,211,0.0,1.0,86,0.00,,---,0.00,VWS V14.00,2013-04-25 04:02:00,
2013-04-25 00:05:00,57.0,52.9,29.89,SSW,205,3.0,3.0,86,0.00,,---,0.00,VWS V14.00,2013-04-25 04:05:00,
2013-04-25 00:09:00,56.9,53.1,29.90,SSW,213,0.0,1.0,87,0.00,,---,0.00,VWS V14.00,2013-04-25 04:09:00,
2013-04-25 00:14:00,56.9,53.1,29.90,SSW,209,0.0,3.0,87,0.00,,---,0.00,VWS V14.00,2013-04-25 04:14:00,
2013-04-25 00:19:00,56.9,53.1,29.90,SSW,207,2.0,2.0,87,0.00,,---,0.00,VWS V14.00,2013-04-25 04:19:00,
2013-04-25 00:24:00,56.9,53.1,29.90,SSE,155,5.0,5.0,87,0.00,,---,0.00,VWS V14.00,2013-04-25 04:24:00,
2013-04-25 00:29:00,56.9,53.1,29.90,South,175,1.0,4.0,87,0.00,,---,0.00,VWS V14.00,2013-04-25 04:29:00,
2013-04-25 00:34:00,56.9,53.1,29.90,SW,217,3.0,3.0,87,0.00,,---,0.00,VWS V14.00,2013-04-25 04:34:00,
2013-04-25 00:39:00,57.0,53.2,29.90,SSW,205,1.0,3.0,87,0.00,,---,0.00,VWS V14.00,2013-04-25 04:39:00,
2013-04-25 00:44:00,57.0,53.2,29.90,SSW,210,3.0,4.0,87,0.00,,---,0.00,VWS V14.00,2013-04-25 04:44:00,
2013-04-25 00:50:00,57.1,53.3,29.90,SW,217,0.0,2.0,87,0.00,,---,0.00,VWS V14.00,2013-04-25 04:50:00,
2013-04-25 00:55:00,57.1,53.3,29.90,SSW,212,0.0,3.0,87,0.00,,---,0.00,VWS V14.00,2013-04-25 04:55:00,
2013-04-25 01:00:00,57.1,53.3,29.90,SSW,197,2.0,2.0,87,0.00,,---,0.00,VWS V14.00,2013-04-25 05:00:00,
2013-04-25 01:05:00,57.1,53.3,29.90,SSE,157,4.0,7.0,87,0.00,,---,0.00,VWS V14.00,2013-04-25 05:05:00,
2013-04-25 01:10:00,57.2,53.4,29.91,SW,225,0.0,1.0,87,0.00,,---,0.00,VWS V14.00,2013-04-25 05:10:00,
2013-04-25 01:15:00,57.2,53.4,29.90,WSW,246,0.0,1.0,87,0.00,,---,0.00,VWS V14.00,2013-04-25 05:15:00,
2013-04-25 01:20:00,57.3,53.5,29.91,SW,234,0.0,0.0,87,0.00,,---,0.00,VWS V14.00,2013-04-25 05:20:00,
2013-04-25 01:25:00,57.3,53.5,29.92,SW,234,0.0,0.0,87,0.00,,---,0.00,VWS V14.00,2013-04-25 05:25:00,
2013-04-25 01:30:00,57.3,53.5,29.92,SW,234,0.0,0.0,87,0.00,,---,0.00,VWS V14.00,2013-04-25 05:30:00,
2013-04-25 01:35:00,57.5,53.7,29.92,West,268,0.0,0.0,87,0.00,,---,0.00,VWS V14.00,2013-04-25 05:35:00,
2013-04-25 01:40:00,57.8,54.0,29.93,WSW,252,0.0,1.0,87,0.00,,---,0.00,VWS V14.00,2013-04-25 05:40:00,
2013-04-25 01:45:00,58.1,54.3,29.93,West,272,0.0,3.0,87,0.00,,---,0.00,VWS V14.00,2013-04-25 05:45:00,
2013-04-25 01:50:00,58.6,54.4,29.93,West,272,3.0,3.0,86,0.00,,---,0.00,VWS V14.00,2013-04-25 05:50:00,
2013-04-25 01:55:00,59.1,54.6,29.94,West,277,3.0,3.0,85,0.00,,---,0.00,VWS V14.00,2013-04-25 05:55:00,
2013-04-25 02:00:00,59.3,54.8,29.94,WNW,301,4.0,4.0,85,0.00,,---,0.00,VWS V14.00,2013-04-25 06:00:00,
2013-04-25 02:06:00,59.3,52.8,29.95,NW,313,3.0,3.0,79,0.00,,---,0.00,VWS V14.00,2013-04-25 06:06:00,
2013-04-25 02:11:00,59.3,51.8,29.95,NW,306,2.0,4.0,76,0.00,,---,0.00,VWS V14.00,2013-04-25 06:11:00,
2013-04-25 02:16:00,59.3,49.9,29.95,WNW,288,3.0,5.0,71,0.00,,---,0.00,VWS V14.00,2013-04-25 06:16:00,
2013-04-25 02:21:00,59.2,47.5,29.95,NW,313,6.0,9.0,65,0.00,,---,0.00,VWS V14.00,2013-04-25 06:21:00,
2013-04-25 02:26:00,59.0,45.2,29.95,West,281,7.0,8.0,60,0.00,,---,0.00,VWS V14.00,2013-04-25 06:26:00,
2013-04-25 02:31:00,58.7,43.1,29.95,West,274,5.0,5.0,56,0.00,,---,0.00,VWS V14.00,2013-04-25 06:31:00,
2013-04-25 02:36:00,58.3,42.2,29.96,West,281,2.0,6.0,55,0.00,,---,0.00,VWS V14.00,2013-04-25 06:36:00,
2013-04-25 02:41:00,58.0,41.9,29.96,WNW,284,5.0,5.0,55,0.00,,---,0.00,VWS V14.00,2013-04-25 06:41:00,
2013-04-25 02:46:00,57.5,41.9,29.95,WNW,291,4.0,5.0,56,0.00,,---,0.00,VWS V14.00,2013-04-25 06:46:00,
2013-04-25 02:51:00,57.2,41.7,29.97,WNW,286,3.0,4.0,56,0.00,,---,0.00,VWS V14.00,2013-04-25 06:51:00,
2013-04-25 02:56:00,56.8,41.8,29.97,NW,314,1.0,3.0,57,0.00,,---,0.00,VWS V14.00,2013-04-25 06:56:00,
2013-04-25 03:01:00,56.6,41.6,29.97,NW,308,3.0,3.0,57,0.00,,---,0.00,VWS V14.00,2013-04-25 07:01:00,
2013-04-25 03:06:00,56.0,40.5,29.97,NNW,327,4.0,5.0,56,0.00,,---,0.00,VWS V14.00,2013-04-25 07:06:00,
2013-04-25 03:11:00,55.5,40.5,29.98,NW,304,4.0,7.0,57,0.00,,---,0.00,VWS V14.00,2013-04-25 07:11:00,
2013-04-25 03:16:00,55.0,40.5,29.99,NW,310,5.0,8.0,58,0.00,,---,0.00,VWS V14.00,2013-04-25 07:16:00,
2013-04-25 03:21:00,54.6,40.6,30.00,WNW,300,5.0,7.0,59,0.00,,---,0.00,VWS V14.00,2013-04-25 07:21:00,
2013-04-25 03:26:00,54.1,40.5,30.00,NW,311,4.0,9.0,60,0.00,,---,0.00,VWS V14.00,2013-04-25 07:26:00,
2013-04-25 03:31:00,53.8,40.3,30.00,NW,313,4.0,5.0,60,0.00,,---,0.00,VWS V14.00,2013-04-25 07:31:00,
2013-04-25 03:37:00,53.5,40.0,30.00,NW,309,1.0,2.0,60,0.00,,---,0.00,VWS V14.00,2013-04-25 07:37:00,
2013-04-25 03:42:00,53.2,39.7,30.00,West,277,4.0,8.0,60,0.00,,---,0.00,VWS V14.00,2013-04-25 07:42:00,
2013-04-25 03:47:00,52.9,39.4,30.00,WNW,295,4.0,5.0,60,0.00,,---,0.00,VWS V14.00,2013-04-25 07:47:00,
2013-04-25 03:52:00,52.5,38.6,30.01,NW,309,5.0,6.0,59,0.00,,---,0.00,VWS V14.00,2013-04-25 07:52:00,
2013-04-25 03:57:00,52.2,38.8,30.01,NW,304,2.0,5.0,60,0.00,,---,0.00,VWS V14.00,2013-04-25 07:57:00,
2013-04-25 04:02:00,51.9,38.5,30.01,NW,312,4.0,5.0,60,0.00,,---,0.00,VWS V14.00,2013-04-25 08:02:00,
2013-04-25 04:07:00,51.7,38.7,30.02,WNW,290,2.0,4.0,61,0.00,,---,0.00,VWS V14.00,2013-04-25 08:07:00,
2013-04-25 04:12:00,51.5,38.5,30.02,NW,307,7.0,10.0,61,0.00,,---,0.00,VWS V14.00,2013-04-25 08:12:00,
2013-04-25 04:17:00,51.3,38.7,30.02,NW,318,2.0,2.0,62,0.00,,---,0.00,VWS V14.00,2013-04-25 08:17:00,
2013-04-25 04:22:00,51.1,38.1,30.02,WNW,290,5.0,6.0,61,0.00,,---,0.00,VWS V14.00,2013-04-25 08:22:00,
2013-04-25 04:27:00,50.9,38.4,30.03,WNW,288,4.0,4.0,62,0.00,,---,0.00,VWS V14.00,2013-04-25 08:27:00,
2013-04-25 04:32:00,50.7,37.8,30.04,West,275,4.0,4.0,61,0.00,,---,0.00,VWS V14.00,2013-04-25 08:32:00,
2013-04-25 04:37:00,50.5,38.0,30.04,WNW,282,5.0,5.0,62,0.00,,---,0.00,VWS V14.00,2013-04-25 08:37:00,
2013-04-25 04:42:00,50.4,37.9,30.05,WNW,289,1.0,3.0,62,0.00,,---,0.00,VWS V14.00,2013-04-25 08:42:00,
2013-04-25 04:47:00,50.2,38.5,30.05,West,280,4.0,4.0,64,0.00,,---,0.00,VWS V14.00,2013-04-25 08:47:00,
2013-04-25 04:52:00,49.9,38.2,30.05,WNW,284,3.0,3.0,64,0.00,,---,0.00,VWS V14.00,2013-04-25 08:52:00,
2013-04-25 04:57:00,49.8,38.1,30.05,WNW,287,2.0,4.0,64,0.00,,---,0.00,VWS V14.00,2013-04-25 08:57:00,
2013-04-25 05:02:00,49.7,38.0,30.05,West,280,4.0,4.0,64,0.00,,---,0.00,VWS V14.00,2013-04-25 09:02:00,
2013-04-25 05:08:00,49.7,37.6,30.05,NW,313,2.0,4.0,63,0.00,,---,0.00,VWS V14.00,2013-04-25 09:08:00,
2013-04-25 05:13:00,49.6,37.9,30.05,WNW,288,3.0,4.0,64,0.00,,---,0.00,VWS V14.00,2013-04-25 09:13:00,
2013-04-25 05:18:00,49.4,38.5,30.05,WNW,298,4.0,4.0,66,0.00,,---,0.00,VWS V14.00,2013-04-25 09:18:00,
2013-04-25 05:23:00,48.8,39.1,30.06,West,281,4.0,6.0,69,0.00,,---,0.00,VWS V14.00,2013-04-25 09:23:00,
2013-04-25 05:28:00,48.3,39.3,30.07,NW,306,3.0,6.0,71,0.00,,---,0.00,VWS V14.00,2013-04-25 09:28:00,
2013-04-25 05:33:00,48.1,39.2,30.07,WNW,290,3.0,4.0,71,0.00,,---,0.00,VWS V14.00,2013-04-25 09:33:00,
2013-04-25 05:38:00,48.1,39.2,30.08,WNW,292,3.0,3.0,71,0.00,,---,0.00,VWS V14.00,2013-04-25 09:38:00,
2013-04-25 05:43:00,48.1,38.8,30.09,NW,315,2.0,2.0,70,0.00,,---,0.00,VWS V14.00,2013-04-25 09:43:00,
2013-04-25 05:48:00,48.1,38.4,30.09,WNW,294,4.0,4.0,69,0.00,,---,0.00,VWS V14.00,2013-04-25 09:48:00,
2013-04-25 05:53:00,48.1,38.4,30.09,NW,309,2.0,3.0,69,0.00,,---,0.00,VWS V14.00,2013-04-25 09:53:00,
2013-04-25 05:58:00,48.1,38.0,30.09,WNW,286,3.0,3.0,68,0.00,,---,0.00,VWS V14.00,2013-04-25 09:58:00,
2013-04-25 06:03:00,48.1,37.7,30.10,NW,309,1.0,4.0,67,0.00,,---,0.00,VWS V14.00,2013-04-25 10:03:00,
2013-04-25 06:08:00,48.2,36.6,30.10,NNW,334,4.0,5.0,64,0.00,,---,0.00,VWS V14.00,2013-04-25 10:08:00,
2013-04-25 06:13:00,48.2,34.6,30.10,NNW,341,7.0,9.0,59,0.00,,---,0.00,VWS V14.00,2013-04-25 10:13:00,
2013-04-25 06:18:00,48.2,34.6,30.10,NNW,328,5.0,8.0,59,0.00,,---,0.00,VWS V14.00,2013-04-25 10:18:00,
2013-04-25 06:24:00,48.1,34.0,30.11,NW,321,6.0,6.0,58,0.00,,---,0.00,VWS V14.00,2013-04-25 10:24:00,
2013-04-25 06:29:00,48.0,34.4,30.12,NNW,329,3.0,3.0,59,0.00,,---,0.00,VWS V14.00,2013-04-25 10:29:00,
2013-04-25 06:34:00,47.9,33.8,30.12,WNW,290,4.0,4.0,58,0.00,,---,0.00,VWS V14.00,2013-04-25 10:34:00,
2013-04-25 06:39:00,47.9,33.8,30.13,WNW,301,3.0,3.0,58,0.00,,---,0.00,VWS V14.00,2013-04-25 10:39:00,
2013-04-25 06:44:00,47.8,34.2,30.14,WNW,301,5.0,5.0,59,0.00,,---,0.00,VWS V14.00,2013-04-25 10:44:00,
2013-04-25 06:49:00,47.6,33.6,30.14,WNW,302,7.0,7.0,58,0.00,,---,0.00,VWS V14.00,2013-04-25 10:49:00,
2013-04-25 06:54:00,47.5,33.9,30.15,WNW,300,5.0,6.0,59,0.00,,---,0.00,VWS V14.00,2013-04-25 10:54:00,
2013-04-25 06:59:00,47.3,33.7,30.15,NNW,331,6.0,8.0,59,0.00,,---,0.00,VWS V14.00,2013-04-25 10:59:00,
2013-04-25 07:04:00,47.1,33.9,30.14,NW,318,6.0,6.0,60,0.00,,---,0.00,VWS V14.00,2013-04-25 11:04:00,
2013-04-25 07:09:00,46.9,33.8,30.14,NW,321,2.0,3.0,60,0.00,,---,0.00,VWS V14.00,2013-04-25 11:09:00,
2013-04-25 07:14:00,46.9,33.8,30.15,WNW,290,4.0,7.0,60,0.00,,---,0.00,VWS V14.00,2013-04-25 11:14:00,
2013-04-25 07:19:00,47.0,33.8,30.16,NNW,327,1.0,4.0,60,0.00,,---,0.00,VWS V14.00,2013-04-25 11:19:00,
2013-04-25 07:24:00,47.1,33.9,30.16,WNW,286,3.0,4.0,60,0.00,,---,0.00,VWS V14.00,2013-04-25 11:24:00,
2013-04-25 07:29:00,47.2,34.0,30.16,NW,313,3.0,3.0,60,0.00,,---,0.00,VWS V14.00,2013-04-25 11:29:00,
2013-04-25 07:34:00,47.3,33.7,30.17,NW,319,4.0,8.0,59,0.00,,---,0.00,VWS V14.00,2013-04-25 11:34:00,
2013-04-25 07:39:00,47.4,33.8,30.17,WNW,298,2.0,4.0,59,0.00,,---,0.00,VWS V14.00,2013-04-25 11:39:00,
2013-04-25 07:44:00,47.5,33.9,30.18,NNW,336,4.0,4.0,59,0.00,,---,0.00,VWS V14.00,2013-04-25 11:44:00,
2013-04-25 07:49:00,47.6,33.1,30.18,NW,313,3.0,5.0,57,0.00,,---,0.00,VWS V14.00,2013-04-25 11:49:00,
2013-04-25 07:55:00,47.6,33.6,30.19,West,267,0.0,2.0,58,0.00,,---,0.00,VWS V14.00,2013-04-25 11:55:00,
2013-04-25 08:00:00,47.7,34.1,30.19,NNW,338,3.0,3.0,59,0.00,,---,0.00,VWS V14.00,2013-04-25 12:00:00,
2013-04-25 08:05:00,47.9,34.3,30.19,WNW,287,3.0,3.0,59,0.00,,---,0.00,VWS V14.00,2013-04-25 12:05:00,
2013-04-25 08:10:00,48.0,33.1,30.19,NNW,334,9.0,11.0,56,0.00,,---,0.00,VWS V14.00,2013-04-25 12:10:00,
2013-04-25 08:15:00,47.8,32.9,30.19,NNW,329,6.0,6.0,56,0.00,,---,0.00,VWS V14.00,2013-04-25 12:15:00,
2013-04-25 08:20:00,47.5,33.0,30.19,NNW,348,6.0,7.0,57,0.00,,---,0.00,VWS V14.00,2013-04-25 12:20:00,
2013-04-25 08:25:00,47.5,33.0,30.19,NNW,333,3.0,7.0,57,0.00,,---,0.00,VWS V14.00,2013-04-25 12:25:00,
2013-04-25 08:30:00,47.7,33.7,30.19,NW,312,2.0,5.0,58,0.00,,---,0.00,VWS V14.00,2013-04-25 12:30:00,
2013-04-25 08:35:00,47.8,33.3,30.19,North,5,2.0,3.0,57,0.00,,---,0.00,VWS V14.00,2013-04-25 12:35:00,
2013-04-25 08:40:00,47.9,33.4,30.19,WNW,291,6.0,6.0,57,0.00,,---,0.00,VWS V14.00,2013-04-25 12:40:00,
2013-04-25 08:45:00,48.1,33.6,30.19,NW,321,4.0,6.0,57,0.00,,---,0.00,VWS V14.00,2013-04-25 12:45:00,
2013-04-25 08:50:00,48.5,34.0,30.19,NW,315,4.0,5.0,57,0.00,,---,0.00,VWS V14.00,2013-04-25 12:50:00,
2013-04-25 08:55:00,48.7,33.7,30.19,NW,306,3.0,3.0,56,0.00,,---,0.00,VWS V14.00,2013-04-25 12:55:00,
2013-04-25 09:00:00,48.8,32.9,30.19,NW,325,1.0,3.0,54,0.00,,---,0.00,VWS V14.00,2013-04-25 13:00:00,
2013-04-25 09:05:00,48.8,32.4,30.19,WNW,290,7.0,7.0,53,0.00,,---,0.00,VWS V14.00,2013-04-25 13:05:00,
2013-04-25 09:10:00,48.7,31.9,30.19,NW,323,6.0,6.0,52,0.00,,---,0.00,VWS V14.00,2013-04-25 13:10:00,
2013-04-25 09:15:00,48.9,32.5,30.19,WNW,297,2.0,3.0,53,0.00,,---,0.00,VWS V14.00,2013-04-25 13:15:00,
2013-04-25 09:20:00,49.0,31.7,30.20,NNW,331,3.0,4.0,51,0.00,,---,0.00,VWS V14.00,2013-04-25 13:20:00,
2013-04-25 09:25:00,49.4,32.5,30.20,WNW,288,3.0,7.0,52,0.00,,---,0.00,VWS V14.00,2013-04-25 13:25:00,
2013-04-25 09:31:00,49.9,32.5,30.20,NNW,327,7.0,9.0,51,0.00,,---,0.00,VWS V14.00,2013-04-25 13:31:00,
2013-04-25 09:36:00,50.0,31.6,30.19,WNW,296,4.0,4.0,49,0.00,,---,0.00,VWS V14.00,2013-04-25 13:36:00,
2013-04-25 09:41:00,50.4,31.5,30.20,NNW,333,3.0,3.0,48,0.00,,---,0.00,VWS V14.00,2013-04-25 13:41:00,
2013-04-25 09:46:00,50.6,32.2,30.20,NW,319,2.0,3.0,49,0.00,,---,0.00,VWS V14.00,2013-04-25 13:46:00,
2013-04-25 09:51:00,51.0,32.5,30.20,NNW,333,4.0,5.0,49,0.00,,---,0.00,VWS V14.00,2013-04-25 13:51:00,
2013-04-25 09:56:00,50.8,33.3,30.20,NW,317,2.0,3.0,51,0.00,,---,0.00,VWS V14.00,2013-04-25 13:56:00,
2013-04-25 10:01:00,51.0,33.5,30.20,WNW,296,4.0,4.0,51,0.00,,---,0.00,VWS V14.00,2013-04-25 14:01:00,
2013-04-25 10:06:00,51.2,32.7,30.20,NNW,344,6.0,6.0,49,0.00,,---,0.00,VWS V14.00,2013-04-25 14:06:00,
2013-04-25 10:11:00,51.4,33.4,30.20,NW,311,1.0,2.0,50,0.00,,---,0.00,VWS V14.00,2013-04-25 14:11:00,
2013-04-25 10:16:00,51.4,33.4,30.20,WNW,296,4.0,4.0,50,0.00,,---,0.00,VWS V14.00,2013-04-25 14:16:00,
2013-04-25 10:21:00,51.4,32.9,30.20,WNW,291,4.0,4.0,49,0.00,,---,0.00,VWS V14.00,2013-04-25 14:21:00,
2013-04-25 10:26:00,51.7,33.2,30.20,WNW,300,2.0,2.0,49,0.00,,---,0.00,VWS V14.00,2013-04-25 14:26:00,
2013-04-25 10:31:00,52.1,33.0,30.20,NW,305,3.0,5.0,48,0.00,,---,0.00,VWS V14.00,2013-04-25 14:31:00,
2013-04-25 10:36:00,51.9,31.8,30.20,WNW,296,2.0,3.0,46,0.00,,---,0.00,VWS V14.00,2013-04-25 14:36:00,
2013-04-25 10:41:00,52.3,32.7,30.20,NW,321,5.0,5.0,47,0.00,,---,0.00,VWS V14.00,2013-04-25 14:41:00,
2013-04-25 10:47:00,52.2,32.1,30.20,WNW,290,3.0,3.0,46,0.00,,---,0.00,VWS V14.00,2013-04-25 14:47:00,
2013-04-25 10:52:00,52.6,33.0,30.20,North,350,5.0,5.0,47,0.00,,---,0.00,VWS V14.00,2013-04-25 14:52:00,
2013-04-25 10:57:00,53.1,32.9,30.21,WNW,298,3.0,3.0,46,0.00,,---,0.00,VWS V14.00,2013-04-25 14:57:00,
2013-04-25 11:02:00,53.2,32.4,30.21,NNW,348,5.0,8.0,45,0.00,,---,0.00,VWS V14.00,2013-04-25 15:02:00,
2013-04-25 11:07:00,53.3,33.1,30.20,WNW,298,1.0,2.0,46,0.00,,---,0.00,VWS V14.00,2013-04-25 15:07:00,
2013-04-25 11:12:00,53.8,33.5,30.21,NNW,331,3.0,5.0,46,0.00,,---,0.00,VWS V14.00,2013-04-25 15:12:00,
2013-04-25 11:17:00,53.9,32.5,30.21,NNE,12,6.0,6.0,44,0.00,,---,0.00,VWS V14.00,2013-04-25 15:17:00,
2013-04-25 11:22:00,53.8,32.4,30.21,WNW,286,0.0,1.0,44,0.00,,---,0.00,VWS V14.00,2013-04-25 15:22:00,
2013-04-25 11:27:00,54.3,34.0,30.21,WNW,300,4.0,5.0,46,0.00,,---,0.00,VWS V14.00,2013-04-25 15:27:00,
2013-04-25 11:32:00,54.8,32.8,30.21,North,349,8.0,8.0,43,0.00,,---,0.00,VWS V14.00,2013-04-25 15:32:00,
2013-04-25 11:37:00,54.7,30.9,30.21,WNW,293,3.0,3.0,40,0.00,,---,0.00,VWS V14.00,2013-04-25 15:37:00,
2013-04-25 11:42:00,54.8,30.3,30.21,NW,306,1.0,4.0,39,0.00,,---,0.00,VWS V14.00,2013-04-25 15:42:00,
2013-04-25 11:47:00,55.1,31.8,30.21,NW,304,2.0,3.0,41,0.00,,---,0.00,VWS V14.00,2013-04-25 15:47:00,
2013-04-25 11:52:00,55.5,31.6,30.21,WNW,300,0.0,0.0,40,0.00,,---,0.00,VWS V14.00,2013-04-25 15:52:00,
2013-04-25 11:57:00,56.2,33.4,30.21,WNW,284,1.0,2.0,42,0.00,,---,0.00,VWS V14.00,2013-04-25 15:57:00,
2013-04-25 12:02:00,56.5,32.5,30.21,NW,309,2.0,4.0,40,0.00,,---,0.00,VWS V14.00,2013-04-25 16:02:00,
2013-04-25 12:07:00,56.3,31.7,30.21,WNW,282,3.0,5.0,39,0.00,,---,0.00,VWS V14.00,2013-04-25 16:07:00,
2013-04-25 12:12:00,56.4,32.4,30.21,NNW,346,3.0,4.0,40,0.00,,---,0.00,VWS V14.00,2013-04-25 16:12:00,
2013-04-25 12:18:00,56.6,33.2,30.21,WNW,292,2.0,3.0,41,0.00,,---,0.00,VWS V14.00,2013-04-25 16:18:00,
2013-04-25 12:23:00,56.9,32.2,30.20,NNW,328,3.0,3.0,39,0.00,,---,0.00,VWS V14.00,2013-04-25 16:23:00,
2013-04-25 12:28:00,57.6,35.9,30.20,WSW,250,2.0,3.0,44,0.00,,---,0.00,VWS V14.00,2013-04-25 16:28:00,
2013-04-25 12:33:00,58.3,34.7,30.20,NNW,336,1.0,1.0,41,0.00,,---,0.00,VWS V14.00,2013-04-25 16:33:00,
2013-04-25 12:38:00,58.6,31.8,30.20,West,260,0.0,1.0,36,0.00,,---,0.00,VWS V14.00,2013-04-25 16:38:00,
2013-04-25 12:43:00,58.7,32.5,30.20,WNW,296,1.0,2.0,37,0.00,,---,0.00,VWS V14.00,2013-04-25 16:43:00,
2013-04-25 12:48:00,58.7,31.8,30.20,NW,315,4.0,4.0,36,0.00,,---,0.00,VWS V14.00,2013-04-25 16:48:00,
2013-04-25 12:53:00,58.3,31.5,30.20,NW,321,7.0,7.0,36,0.00,,---,0.00,VWS V14.00,2013-04-25 16:53:00,
2013-04-25 12:58:00,58.2,31.4,30.20,North,349,2.0,3.0,36,0.00,,---,0.00,VWS V14.00,2013-04-25 16:58:00,
2013-04-25 13:03:00,58.6,30.3,30.20,WNW,289,3.0,4.0,34,0.00,,---,0.00,VWS V14.00,2013-04-25 17:03:00,
2013-04-25 13:08:00,58.9,30.6,30.20,NNW,346,5.0,6.0,34,0.00,,---,0.00,VWS V14.00,2013-04-25 17:08:00,
2013-04-25 13:13:00,58.6,31.8,30.19,NNW,340,3.0,3.0,36,0.00,,---,0.00,VWS V14.00,2013-04-25 17:13:00,
2013-04-25 13:18:00,58.9,33.4,30.19,NNW,346,5.0,6.0,38,0.00,,---,0.00,VWS V14.00,2013-04-25 17:18:00,
2013-04-25 13:23:00,58.8,32.6,30.19,NNW,345,4.0,5.0,37,0.00,,---,0.00,VWS V14.00,2013-04-25 17:23:00,
2013-04-25 13:28:00,58.9,33.4,30.19,WNW,282,2.0,2.0,38,0.00,,---,0.00,VWS V14.00,2013-04-25 17:28:00,
2013-04-25 13:33:00,59.2,32.3,30.19,WNW,286,5.0,5.0,36,0.00,,---,0.00,VWS V14.00,2013-04-25 17:33:00,
2013-04-25 13:38:00,59.0,32.8,30.19,NNW,327,2.0,2.0,37,0.00,,---,0.00,VWS V14.00,2013-04-25 17:38:00,
2013-04-25 13:44:00,59.1,32.2,30.20,WSW,248,0.0,2.0,36,0.00,,---,0.00,VWS V14.00,2013-04-25 17:44:00,
2013-04-25 13:49:00,59.3,32.4,30.19,NW,325,0.0,0.0,36,0.00,,---,0.00,VWS V14.00,2013-04-25 17:49:00,
2013-04-25 13:54:00,59.6,31.9,30.19,NW,306,5.0,6.0,35,0.00,,---,0.00,VWS V14.00,2013-04-25 17:54:00,
2013-04-25 13:59:00,59.3,32.4,30.19,NW,309,0.0,1.0,36,0.00,,---,0.00,VWS V14.00,2013-04-25 17:59:00,
2013-04-25 14:04:00,59.8,32.8,30.19,WNW,297,1.0,3.0,36,0.00,,---,0.00,VWS V14.00,2013-04-25 18:04:00,
2013-04-25 14:09:00,60.2,30.2,30.19,WNW,300,2.0,2.0,32,0.00,,---,0.00,VWS V14.00,2013-04-25 18:09:00,
2013-04-25 14:14:00,59.8,30.7,30.19,WNW,303,0.0,0.0,33,0.00,,---,0.00,VWS V14.00,2013-04-25 18:14:00,
2013-04-25 14:19:00,60.0,30.8,30.19,WNW,300,0.0,0.0,33,0.00,,---,0.00,VWS V14.00,2013-04-25 18:19:00,
2013-04-25 14:24:00,60.2,32.5,30.19,WNW,302,2.0,2.0,35,0.00,,---,0.00,VWS V14.00,2013-04-25 18:24:00,
2013-04-25 14:29:00,60.6,31.4,30.19,WNW,303,1.0,2.0,33,0.00,,---,0.00,VWS V14.00,2013-04-25 18:29:00,
2013-04-25 14:34:00,60.8,31.5,30.19,WNW,293,1.0,1.0,33,0.00,,---,0.00,VWS V14.00,2013-04-25 18:34:00,
2013-04-25 14:39:00,61.1,31.0,30.19,NNW,344,5.0,5.0,32,0.00,,---,0.00,VWS V14.00,2013-04-25 18:39:00,
2013-04-25 14:44:00,61.4,32.1,30.19,North,355,1.0,1.0,33,0.00,,---,0.00,VWS V14.00,2013-04-25 18:44:00,
2013-04-25 14:49:00,61.6,30.7,30.19,NNW,329,0.0,1.0,31,0.00,,---,0.00,VWS V14.00,2013-04-25 18:49:00,
2013-04-25 14:54:00,61.7,33.1,30.19,NW,321,3.0,4.0,34,0.00,,---,0.00,VWS V14.00,2013-04-25 18:54:00,
2013-04-25 15:00:00,61.4,30.5,30.19,WNW,290,1.0,3.0,31,0.00,,---,0.00,VWS V14.00,2013-04-25 19:00:00,
2013-04-25 15:05:00,61.5,30.6,30.19,NW,313,3.0,3.0,31,0.00,,---,0.00,VWS V14.00,2013-04-25 19:05:00,
2013-04-25 15:10:00,61.6,29.9,30.19,WNW,289,2.0,2.0,30,0.00,,---,0.00,VWS V14.00,2013-04-25 19:10:00,
2013-04-25 15:15:00,61.4,32.1,30.18,NNE,22,0.0,2.0,33,0.00,,---,0.00,VWS V14.00,2013-04-25 19:15:00,
2013-04-25 15:20:00,61.5,30.6,30.19,NNW,338,0.0,0.0,31,0.00,,---,0.00,VWS V14.00,2013-04-25 19:20:00,
2013-04-25 15:25:00,62.1,31.1,30.19,WNW,286,0.0,2.0,31,0.00,,---,0.00,VWS V14.00,2013-04-25 19:25:00,
2013-04-25 15:30:00,62.5,29.8,30.19,SSW,201,2.0,2.0,29,0.00,,---,0.00,VWS V14.00,2013-04-25 19:30:00,
2013-04-25 15:35:00,63.1,29.5,30.18,West,277,1.0,2.0,28,0.00,,---,0.00,VWS V14.00,2013-04-25 19:35:00,
2013-04-25 15:40:00,63.0,30.3,30.19,West,273,3.0,5.0,29,0.00,,---,0.00,VWS V14.00,2013-04-25 19:40:00,
2013-04-25 15:45:00,62.7,28.3,30.18,West,278,0.0,1.0,27,0.00,,---,0.00,VWS V14.00,2013-04-25 19:45:00,
2013-04-25 15:50:00,62.7,28.3,30.18,WNW,294,1.0,1.0,27,0.00,,---,0.00,VWS V14.00,2013-04-25 19:50:00,
2013-04-25 15:55:00,62.6,28.2,30.18,WNW,302,0.0,0.0,27,0.00,,---,0.00,VWS V14.00,2013-04-25 19:55:00,
2013-04-25 16:00:00,63.2,30.4,30.18,West,277,1.0,1.0,29,0.00,,---,0.00,VWS V14.00,2013-04-25 20:00:00,
2013-04-25 16:05:00,63.0,30.3,30.18,WSW,246,3.0,3.0,29,0.00,,---,0.00,VWS V14.00,2013-04-25 20:05:00,
2013-04-25 16:10:00,63.5,29.8,30.18,SSW,205,2.0,2.0,28,0.00,,---,0.00,VWS V14.00,2013-04-25 20:10:00,
2013-04-25 16:15:00,63.6,29.9,30.18,NW,304,0.0,0.0,28,0.00,,---,0.00,VWS V14.00,2013-04-25 20:15:00,
2013-04-25 16:20:00,63.6,30.8,30.18,NW,323,1.0,2.0,29,0.00,,---,0.00,VWS V14.00,2013-04-25 20:20:00,
2013-04-25 16:26:00,63.5,32.3,30.18,WNW,287,3.0,3.0,31,0.00,,---,0.00,VWS V14.00,2013-04-25 20:26:00,
2013-04-25 16:31:00,63.6,30.8,30.19,WNW,287,0.0,0.0,29,0.00,,---,0.00,VWS V14.00,2013-04-25 20:31:00,
2013-04-25 16:36:00,63.9,31.0,30.18,West,263,0.0,1.0,29,0.00,,---,0.00,VWS V14.00,2013-04-25 20:36:00,
2013-04-25 16:41:00,64.0,30.3,30.18,SW,222,0.0,0.0,28,0.00,,---,0.00,VWS V14.00,2013-04-25 20:41:00,
2013-04-25 16:46:00,63.8,30.1,30.18,SSE,163,5.0,6.0,28,0.00,,---,0.00,VWS V14.00,2013-04-25 20:46:00,
2013-04-25 16:51:00,63.5,33.1,30.18,SSE,163,0.0,0.0,32,0.00,,---,0.00,VWS V14.00,2013-04-25 20:51:00,
2013-04-25 16:56:00,63.3,29.7,30.18,WSW,241,0.0,0.0,28,0.00,,---,0.00,VWS V14.00,2013-04-25 20:56:00,
2013-04-25 17:01:00,63.5,31.5,30.18,WNW,302,2.0,2.0,30,0.00,,---,0.00,VWS V14.00,2013-04-25 21:01:00,
2013-04-25 17:06:00,63.3,29.7,30.19,NNW,348,1.0,2.0,28,0.00,,---,0.00,VWS V14.00,2013-04-25 21:06:00,
2013-04-25 17:11:00,63.0,29.4,30.19,WNW,286,0.0,0.0,28,0.00,,---,0.00,VWS V14.00,2013-04-25 21:11:00,
2013-04-25 17:16:00,63.1,30.4,30.18,WNW,286,2.0,2.0,29,0.00,,---,0.00,VWS V14.00,2013-04-25 21:16:00,
2013-04-25 17:21:00,62.9,29.3,30.18,WNW,286,1.0,1.0,28,0.00,,---,0.00,VWS V14.00,2013-04-25 21:21:00,
2013-04-25 17:26:00,62.7,29.1,30.19,WNW,286,0.0,0.0,28,0.00,,---,0.00,VWS V14.00,2013-04-25 21:26:00,
2013-04-25 17:31:00,62.8,30.9,30.19,SSE,157,5.0,5.0,30,0.00,,---,0.00,VWS V14.00,2013-04-25 21:31:00,
2013-04-25 17:36:00,62.9,29.3,30.19,SW,215,1.0,1.0,28,0.00,,---,0.00,VWS V14.00,2013-04-25 21:36:00,
2013-04-25 17:41:00,62.7,29.1,30.19,SW,225,0.0,1.0,28,0.00,,---,0.00,VWS V14.00,2013-04-25 21:41:00,
2013-04-25 17:46:00,62.6,29.1,30.19,SW,225,0.0,0.0,28,0.00,,---,0.00,VWS V14.00,2013-04-25 21:46:00,
2013-04-25 17:51:00,62.5,29.0,30.19,SW,214,0.0,1.0,28,0.00,,---,0.00,VWS V14.00,2013-04-25 21:51:00,
2013-04-25 17:57:00,62.5,30.7,30.19,SSE,167,0.0,1.0,30,0.00,,---,0.00,VWS V14.00,2013-04-25 21:57:00,
2013-04-25 18:02:00,62.6,29.9,30.19,South,182,0.0,0.0,29,0.00,,---,0.00,VWS V14.00,2013-04-25 22:02:00,
2013-04-25 18:07:00,62.4,35.8,30.19,SSE,148,1.0,2.0,37,0.00,,---,0.00,VWS V14.00,2013-04-25 22:07:00,
2013-04-25 18:12:00,61.4,37.5,30.19,South,174,0.0,0.0,41,0.00,,---,0.00,VWS V14.00,2013-04-25 22:12:00,
2013-04-25 18:17:00,60.6,37.4,30.19,SSE,165,4.0,4.0,42,0.00,,---,0.00,VWS V14.00,2013-04-25 22:17:00,
2013-04-25 18:22:00,60.1,38.7,30.20,SSE,157,1.0,6.0,45,0.00,,---,0.00,VWS V14.00,2013-04-25 22:22:00,
2013-04-25 18:27:00,59.6,38.8,30.20,South,180,0.0,0.0,46,0.00,,---,0.00,VWS V14.00,2013-04-25 22:27:00,
2013-04-25 18:32:00,59.2,38.5,30.20,South,173,0.0,0.0,46,0.00,,---,0.00,VWS V14.00,2013-04-25 22:32:00,
2013-04-25 18:37:00,58.6,39.5,30.20,South,175,2.0,4.0,49,0.00,,---,0.00,VWS V14.00,2013-04-25 22:37:00,
2013-04-25 18:42:00,58.0,38.4,30.20,SSE,163,1.0,1.0,48,0.00,,---,0.00,VWS V14.00,2013-04-25 22:42:00,
2013-04-25 18:47:00,57.8,39.3,30.20,SSE,161,1.0,1.0,50,0.00,,---,0.00,VWS V14.00,2013-04-25 22:47:00,
2013-04-25 18:52:00,57.5,39.0,30.21,ESE,112,0.0,0.0,50,0.00,,---,0.00,VWS V14.00,2013-04-25 22:52:00,
2013-04-25 18:57:00,57.1,38.7,30.21,ESE,112,0.0,0.0,50,0.00,,---,0.00,VWS V14.00,2013-04-25 22:57:00,
2013-04-25 19:02:00,56.6,38.7,30.21,ESE,112,0.0,0.0,51,0.00,,---,0.00,VWS V14.00,2013-04-25 23:02:00,
2013-04-25 19:07:00,56.2,39.3,30.21,South,179,0.0,0.0,53,0.00,,---,0.00,VWS V14.00,2013-04-25 23:07:00,
2013-04-25 19:12:00,55.9,39.0,30.21,SSE,153,1.0,1.0,53,0.00,,---,0.00,VWS V14.00,2013-04-25 23:12:00,
2013-04-25 19:17:00,55.6,39.7,30.21,South,174,2.0,2.0,55,0.00,,---,0.00,VWS V14.00,2013-04-25 23:17:00,
2013-04-25 19:22:00,55.3,39.9,30.21,SSE,160,4.0,5.0,56,0.00,,---,0.00,VWS V14.00,2013-04-25 23:22:00,
2013-04-25 19:27:00,55.0,39.6,30.21,South,180,1.0,1.0,56,0.00,,---,0.00,VWS V14.00,2013-04-25 23:27:00,
2013-04-25 19:33:00,54.8,40.3,30.21,SSE,152,4.0,6.0,58,0.00,,---,0.00,VWS V14.00,2013-04-25 23:33:00,
2013-04-25 19:38:00,54.5,39.6,30.21,SSE,161,1.0,1.0,57,0.00,,---,0.00,VWS V14.00,2013-04-25 23:38:00,
2013-04-25 19:43:00,54.3,39.8,30.21,South,182,0.0,0.0,58,0.00,,---,0.00,VWS V14.00,2013-04-25 23:43:00,
2013-04-25 19:48:00,54.0,39.6,30.22,SSE,165,0.0,0.0,58,0.00,,---,0.00,VWS V14.00,2013-04-25 23:48:00,
2013-04-25 19:53:00,53.7,39.7,30.22,South,171,0.0,0.0,59,0.00,,---,0.00,VWS V14.00,2013-04-25 23:53:00,
2013-04-25 19:58:00,53.3,39.3,30.22,South,184,3.0,3.0,59,0.00,,---,0.00,VWS V14.00,2013-04-25 23:58:00,
2013-04-25 20:03:00,53.1,39.2,30.22,South,169,0.0,0.0,59,0.00,,---,0.00,VWS V14.00,2013-04-26 00:03:00,
2013-04-25 20:08:00,52.8,39.3,30.22,SSE,162,2.0,4.0,60,0.00,,---,0.00,VWS V14.00,2013-04-26 00:08:00,
2013-04-25 20:13:00,52.7,39.2,30.22,SSE,165,0.0,0.0,60,0.00,,---,0.00,VWS V14.00,2013-04-26 00:13:00,
2013-04-25 20:18:00,52.5,39.0,30.23,South,170,0.0,2.0,60,0.00,,---,0.00,VWS V14.00,2013-04-26 00:18:00,
2013-04-25 20:23:00,52.4,38.9,30.23,SSE,157,1.0,1.0,60,0.00,,---,0.00,VWS V14.00,2013-04-26 00:23:00,
2013-04-25 20:28:00,52.3,39.3,30.23,SSE,157,1.0,2.0,61,0.00,,---,0.00,VWS V14.00,2013-04-26 00:28:00,
2013-04-25 20:33:00,52.1,39.1,30.24,SSE,157,0.0,0.0,61,0.00,,---,0.00,VWS V14.00,2013-04-26 00:33:00,
2013-04-25 20:38:00,52.0,38.6,30.24,SSE,157,0.0,0.0,60,0.00,,---,0.00,VWS V14.00,2013-04-26 00:38:00,
2013-04-25 20:43:00,51.9,38.9,30.24,SSE,157,0.0,0.0,61,0.00,,---,0.00,VWS V14.00,2013-04-26 00:43:00,
2013-04-25 20:48:00,51.8,38.8,30.24,SSE,157,0.0,0.0,61,0.00,,---,0.00,VWS V14.00,2013-04-26 00:48:00,
2013-04-25 20:53:00,51.7,38.7,30.24,SSE,157,0.0,0.0,61,0.00,,---,0.00,VWS V14.00,2013-04-26 00:53:00,
2013-04-25 20:59:00,51.5,38.5,30.25,SSE,157,0.0,0.0,61,0.00,,---,0.00,VWS V14.00,2013-04-26 00:59:00,
2013-04-25 21:04:00,51.4,38.4,30.25,SSE,157,0.0,0.0,61,0.00,,---,0.00,VWS V14.00,2013-04-26 01:04:00,
2013-04-25 21:09:00,51.2,38.2,30.25,SSE,157,0.0,0.0,61,0.00,,---,0.00,VWS V14.00,2013-04-26 01:09:00,
2013-04-25 21:14:00,51.2,37.8,30.25,SSE,157,0.0,0.0,60,0.00,,---,0.00,VWS V14.00,2013-04-26 01:14:00,
2013-04-25 21:19:00,51.1,37.7,30.26,SSE,157,0.0,0.0,60,0.00,,---,0.00,VWS V14.00,2013-04-26 01:19:00,
2013-04-25 21:24:00,51.0,38.0,30.26,SSE,157,0.0,0.0,61,0.00,,---,0.00,VWS V14.00,2013-04-26 01:24:00,
2013-04-25 21:29:00,50.9,38.0,30.26,SSE,157,0.0,0.0,61,0.00,,---,0.00,VWS V14.00,2013-04-26 01:29:00,
2013-04-25 21:34:00,50.9,37.5,30.26,SW,225,0.0,0.0,60,0.00,,---,0.00,VWS V14.00,2013-04-26 01:34:00,
2013-04-25 21:39:00,50.8,37.4,30.26,SW,225,0.0,0.0,60,0.00,,---,0.00,VWS V14.00,2013-04-26 01:39:00,
2013-04-25 21:44:00,50.8,37.8,30.27,SW,225,0.0,0.0,61,0.00,,---,0.00,VWS V14.00,2013-04-26 01:44:00,
2013-04-25 21:49:00,50.7,37.8,30.27,SW,225,0.0,0.0,61,0.00,,---,0.00,VWS V14.00,2013-04-26 01:49:00,
2013-04-25 21:54:00,50.5,38.0,30.27,SW,225,0.0,0.0,62,0.00,,---,0.00,VWS V14.00,2013-04-26 01:54:00,
2013-04-25 21:59:00,50.4,37.9,30.27,SW,225,0.0,0.0,62,0.00,,---,0.00,VWS V14.00,2013-04-26 01:59:00,
2013-04-25 22:04:00,50.1,37.6,30.27,SW,225,0.0,0.0,62,0.00,,---,0.00,VWS V14.00,2013-04-26 02:04:00,
2013-04-25 22:09:00,49.9,37.4,30.27,SW,225,0.0,0.0,62,0.00,,---,0.00,VWS V14.00,2013-04-26 02:09:00,
2013-04-25 22:14:00,49.8,37.7,30.27,SW,225,0.0,0.0,63,0.00,,---,0.00,VWS V14.00,2013-04-26 02:14:00,
2013-04-25 22:20:00,49.6,37.5,30.27,SW,225,0.0,0.0,63,0.00,,---,0.00,VWS V14.00,2013-04-26 02:20:00,
2013-04-25 22:25:00,49.5,37.8,30.27,SW,225,0.0,0.0,64,0.00,,---,0.00,VWS V14.00,2013-04-26 02:25:00,
2013-04-25 22:30:00,49.4,37.8,30.27,SW,225,0.0,0.0,64,0.00,,---,0.00,VWS V14.00,2013-04-26 02:30:00,
2013-04-25 22:35:00,49.1,37.9,30.28,SW,225,0.0,0.0,65,0.00,,---,0.00,VWS V14.00,2013-04-26 02:35:00,
2013-04-25 22:40:00,48.9,37.7,30.27,SW,225,0.0,0.0,65,0.00,,---,0.00,VWS V14.00,2013-04-26 02:40:00,
2013-04-25 22:45:00,48.8,38.0,30.27,SW,225,0.0,0.0,66,0.00,,---,0.00,VWS V14.00,2013-04-26 02:45:00,
2013-04-25 22:50:00,48.8,38.0,30.28,SW,225,0.0,0.0,66,0.00,,---,0.00,VWS V14.00,2013-04-26 02:50:00,
2013-04-25 22:55:00,48.7,37.9,30.28,SW,225,0.0,0.0,66,0.00,,---,0.00,VWS V14.00,2013-04-26 02:55:00,
2013-04-25 23:00:00,48.6,38.2,30.28,SW,225,0.0,0.0,67,0.00,,---,0.00,VWS V14.00,2013-04-26 03:00:00,
2013-04-25 23:05:00,48.5,38.1,30.28,SW,225,0.0,0.0,67,0.00,,---,0.00,VWS V14.00,2013-04-26 03:05:00,
2013-04-25 23:10:00,48.2,37.8,30.28,SW,225,0.0,0.0,67,0.00,,---,0.00,VWS V14.00,2013-04-26 03:10:00,
2013-04-25 23:15:00,48.1,38.0,30.28,SW,225,0.0,0.0,68,0.00,,---,0.00,VWS V14.00,2013-04-26 03:15:00,
2013-04-25 23:20:00,48.0,38.3,30.28,SW,225,0.0,0.0,69,0.00,,---,0.00,VWS V14.00,2013-04-26 03:20:00,
2013-04-25 23:25:00,47.9,38.2,30.28,SW,225,0.0,0.0,69,0.00,,---,0.00,VWS V14.00,2013-04-26 03:25:00,
2013-04-25 23:30:00,47.8,38.1,30.28,SW,225,0.0,0.0,69,0.00,,---,0.00,VWS V14.00,2013-04-26 03:30:00,
2013-04-25 23:35:00,47.7,38.4,30.28,SW,225,0.0,0.0,70,0.00,,---,0.00,VWS V14.00,2013-04-26 03:35:00,
2013-04-25 23:40:00,47.6,38.3,30.28,SW,225,0.0,0.0,70,0.00,,---,0.00,VWS V14.00,2013-04-26 03:40:00,
2013-04-25 23:45:00,47.5,38.6,30.28,SW,225,0.0,0.0,71,0.00,,---,0.00,VWS V14.00,2013-04-26 03:45:00,
2013-04-25 23:51:00,47.3,38.4,30.28,SW,225,0.0,0.0,71,0.00,,---,0.00,VWS V14.00,2013-04-26 03:51:00,
2013-04-25 23:56:00,47.2,38.7,30.28,SW,225,0.0,0.0,72,0.00,,---,0.00,VWS V14.00,2013-04-26 03:56:00,